www.pogodaiklimat.ru

Погода и климат >> Архив погоды >> Норвегия >> Sklinna Fyr


ПОГОДА в Sklinna Fyr

  • Прогноз погоды в Sklinna Fyr
  • Монитор погоды в Sklinna Fyr
  • Климат города

АРХИВ ПОГОДЫ в Sklinna Fyr

Время (UTC), дата Ветер
(напр.,м/с)
 
Видим.   Явления Облачность Т
(С)
Тd
(С)
f
(%)
Тe
(С)
Тes
(С)
Комфортность P
(гПа)
Po
(гПа)
Тmin
(С)
Tmax
(С)
R
(мм)
R24
(мм)
S
(см)
19 12.08 н/о н/о +11.1 +7.2 77 1003.9 1002.0
20 12.08 н/о н/о +11.5 +7.4 76 1004.1 1002.2
21 12.08 н/о н/о +11.1 +7.0 76 1004.1 1002.2
23 12.08 н/о н/о +11.4 +7.3 76 1003.8 1001.9
22 12.08 н/о н/о +11.0 +7.3 78 1004.0 1002.1
00 13.08 н/о н/о +11.1 +6.7 74 1003.8 1001.9
01 13.08 н/о н/о +11.2 +6.2 71 1003.6 1001.7
03 13.08 н/о н/о +10.0 +6.2 77 1003.0 1001.1
04 13.08 н/о н/о +10.9 +6.5 74 1002.7 1000.8
05 13.08 н/о н/о +10.7 +6.3 74 1002.5 1000.6
06 13.08 н/о н/о +12.0 +6.5 69 1002.5 1000.6 +9.9 +12.3
07 13.08 н/о н/о +12.1 +6.2 67 1002.6 1000.7
08 13.08 н/о н/о +12.5 +6.6 67 1002.7 1000.8
09 13.08 н/о н/о +10.9 +7.6 80 1003.2 1001.3
10 13.08 н/о н/о +11.5 +8.4 81 1003.2 1001.3
11 13.08 н/о н/о +12.3 +7.4 72 1003.0 1001.1
12 13.08 н/о н/о +12.3 +8.2 76 1002.6 1000.7
13 13.08 н/о н/о +11.1 +8.3 83 1002.7 1000.8
14 13.08 н/о н/о +12.1 +9.1 82 1002.5 1000.6
15 13.08 н/о н/о +11.9 +8.0 77 1002.4 1000.5
16 13.08 н/о н/о +11.6 +9.7 88 1002.3 1000.4
17 13.08 н/о н/о +11.5 +10.1 91 1002.0 1000.1
18 13.08 н/о н/о +12.5 +9.0 79 1003.2 1001.3 +9.2 +13.1
19 13.08 н/о н/о +11.3 +8.7 84 1004.3 1002.4
20 13.08 н/о н/о +11.7 +9.4 86 1005.1 1003.2
21 13.08 н/о н/о +11.3 +9.7 90 1005.6 1003.7
22 13.08 н/о н/о +11.1 +8.9 86 1006.3 1004.4
23 13.08 н/о н/о +11.9 +9.1 83 1007.2 1005.3
00 14.08 н/о н/о +12.5 +9.2 80 1007.8 1005.9
01 14.08 н/о н/о +12.5 +8.6 77 1008.5 1006.6
02 14.08 н/о н/о +12.5 +9.3 81 1009.2 1007.3
03 14.08 н/о н/о +12.3 +8.8 79 1009.7 1007.8
04 14.08 н/о н/о +12.3 +9.3 82 1010.4 1008.5
05 14.08 н/о н/о +12.4 +8.9 79 1011.2 1009.3
06 14.08 н/о н/о +12.4 +8.1 75 1011.9 1010.0 +11.0 +12.6
07 14.08 н/о н/о +11.5 +9.4 87 1012.9 1011.0
08 14.08 н/о н/о +12.0 +8.7 80 1013.8 1011.9
09 14.08 н/о н/о +12.5 +9.3 81 1014.7 1012.8
10 14.08 н/о н/о +13.2 +8.9 75 1015.3 1013.4
11 14.08 н/о н/о +12.7 +8.8 77 1016.1 1014.2
12 14.08 н/о н/о +12.8 +8.3 74 1016.9 1015.0
13 14.08 н/о н/о +11.7 +8.6 81 1017.6 1015.7
14 14.08 н/о н/о +13.1 +8.2 72 1018.0 1016.1
15 14.08 н/о н/о +12.8 +9.3 79 1018.4 1016.5
16 14.08 н/о н/о +13.1 +8.4 73 1018.7 1016.8
17 14.08 н/о н/о +12.9 +7.8 71 1018.9 1017.0
18 14.08 н/о н/о +12.7 +7.4 70 1019.2 1017.3 +11.3 +13.7
19 14.08 н/о н/о +12.4 +7.3 71 1019.5 1017.6
20 14.08 н/о н/о +11.8 +8.5 80 1019.8 1017.9
21 14.08 н/о н/о +12.0 +8.7 80 1019.9 1018.0
22 14.08 н/о н/о +12.0 +8.7 80 1020.1 1018.2
23 14.08 н/о н/о +12.2 +8.9 80 1020.0 1018.1
00 15.08 н/о н/о +11.8 +8.5 80 1019.8 1017.9
01 15.08 н/о н/о +12.0 +8.5 79 1019.7 1017.8
02 15.08 н/о н/о +12.0 +8.9 81 1019.5 1017.6
03 15.08 н/о н/о +12.2 +8.9 80 1019.3 1017.4
04 15.08 н/о н/о +12.1 +9.8 86 1019.2 1017.3
05 15.08 н/о н/о +11.8 +9.9 88 1019.2 1017.3
06 15.08 н/о н/о +12.3 +9.1 81 1019.1 1017.2
07 15.08 н/о н/о +12.8 +8.7 76 1018.4 1016.5
08 15.08 н/о н/о +13.9 +9.2 73 1018.3 1016.4
09 15.08 н/о н/о +14.4 +9.0 70 1017.8 1015.9
10 15.08 н/о н/о +14.7 +9.1 69 1017.3 1015.4
11 15.08 н/о н/о +14.9 +9.7 71 1016.9 1015.0
12 15.08 н/о н/о +14.3 +9.7 74 1016.5 1014.6
13 15.08 н/о н/о +15.2 +9.8 70 1015.8 1013.9
14 15.08 н/о н/о +14.6 +10.4 76 1015.2 1013.3
15 15.08 н/о н/о +15.1 +10.7 75 1014.6 1012.7
16 15.08 н/о н/о +14.6 +10.6 77 1013.9 1012.0
17 15.08 н/о н/о +14.4 +11.2 81 1013.3 1011.4
18 15.08 н/о н/о +14.2 +11.5 84 1012.7 1010.8 +12.2 +15.8
19 15.08 н/о н/о +14.1 +12.2 88 1012.2 1010.3
20 15.08 н/о н/о +13.9 +12.0 88 1011.8 1009.9
21 15.08 н/о н/о +14.3 +11.6 84 1011.1 1009.2
22 15.08 н/о н/о +15.0 +11.0 77 1010.7 1008.8
23 15.08 н/о н/о +14.9 +10.9 77 1010.5 1008.6
00 16.08 н/о н/о +14.6 +10.4 76 1010.3 1008.4
01 16.08 н/о н/о +14.3 +10.9 80 1010.2 1008.3
02 16.08 н/о н/о +14.2 +11.2 82 1009.9 1008.0
03 16.08 н/о н/о +14.3 +11.5 83 1009.7 1007.8
04 16.08 н/о н/о +14.3 +11.5 83 1009.3 1007.4
05 16.08 н/о н/о +13.9 +12.1 89 1009.6 1007.7
06 16.08 н/о н/о +13.5 +12.4 93 1009.7 1007.8 +13.5 +15.0
07 16.08 н/о н/о +12.9 +11.8 93 1009.7 1007.8
08 16.08 н/о н/о +12.6 +11.7 94 1009.7 1007.8
09 16.08 н/о н/о +12.3 +10.7 90 1009.7 1007.8
10 16.08 н/о н/о +12.6 +11.3 92 1010.0 1008.1
11 16.08 н/о н/о +12.7 +11.4 92 1010.4 1008.5
12 16.08 н/о н/о +12.6 +11.3 92 1010.9 1009.0
13 16.08 н/о н/о +13.1 +11.8 92 1011.2 1009.3
14 16.08 н/о н/о +14.0 +12.1 88 1011.6 1009.7
15 16.08 н/о н/о +14.1 +12.0 87 1011.8 1009.9
16 16.08 н/о н/о +14.1 +11.4 84 1012.2 1010.3
17 16.08 н/о н/о +13.8 +11.2 84 1012.7 1010.8
18 16.08 н/о н/о +13.7 +11.1 84 1013.0 1011.1 +12.3 +14.5
19 16.08 н/о н/о +13.2 +11.3 88 1013.3 1011.4
20 16.08 н/о н/о +13.1 +11.2 88 1013.8 1011.9
21 16.08 н/о н/о +13.4 +11.8 90 1013.9 1012.0
22 16.08 н/о н/о +13.3 +11.9 91 1014.2 1012.3
23 16.08 н/о н/о +13.0 +11.2 89 1014.5 1012.6
00 17.08 н/о н/о +12.8 +10.9 88 1014.7 1012.8
01 17.08 н/о н/о +12.8 +11.4 91 1014.8 1012.9
02 17.08 н/о н/о +13.2 +11.6 90 1015.1 1013.2
05 17.08 н/о н/о +13.0 +11.1 88 1014.6 1012.7
06 17.08 н/о н/о +13.5 +11.2 86 1014.4 1012.5
08 17.08 н/о н/о +15.2 +11.6 79 1013.8 1011.9
07 17.08 н/о н/о +14.6 +11.0 79 1014.3 1012.4
09 17.08 н/о н/о +16.2 +12.2 77 1013.4 1011.5
10 17.08 н/о н/о +16.5 +12.5 77 1013.0 1011.1
11 17.08 н/о н/о +17.1 +12.4 74 1012.4 1010.6
12 17.08 н/о н/о +17.3 +12.8 75 1012.0 1010.2
14 17.08 н/о н/о +16.4 +12.2 76 1010.6 1008.7
13 17.08 н/о н/о +17.0 +12.1 73 1011.4 1009.6
15 17.08 н/о н/о +16.1 +12.1 77 1010.2 1008.3
16 17.08 н/о н/о +16.4 +11.8 74 1009.5 1007.7

 

Местоположение метеостанции Sklinna Fyr (Норвегия): широта 65.20 долгота 11.00 высота над уровнем моря 23 м.

В архиве по умолчанию представлена погода в Sklinna Fyr за последнюю неделю. Архивные данные за месяц целиком и за предыдущие месяцы, начиная с января 2011 года, Вы можете получить, выбрав интересующий диапазон дат из раскрывающегося списка и нажав кнопку "Ввод!".

Внимание! Время в таблицах - всемирное. Для получения местного времени необходимо прибавить поправку, которая в Sklinna Fyr равна 1 ч.

Смотрите также архив погоды в соседних городах и на ближайших метеорологических станциях:

Погода в Rorvik Lufthavn (Норвегия) (42 км)
Погода в S?mna-Kval?yfjellet (Норвегия) (46 км)
Погода в Nordoyan Fyr (Норвегия) (49 км)
Погода в Bronnoysund Lufthavn (Норвегия) (64 км)
Погода в Vega-Vallsjo (Норвегия) (68 км)
Погода в Namsos Lufthavn (Норвегия) (86 км)
Погода в Buholmrasa Fyr (Норвегия) (93 км)
Погода в Tjotta (Норвегия) (96 км)
Погода в Gartland (Норвегия) (99 км)
Погода в Namsskogan (Норвегия) (101 км)

Пояснения к столбцам:

Ветер - указаны скорость ветра в м/с - средняя за 10 мин, порывы в срок и между сроками (в фигурных скобках) и направление, откуда дует ветер: С - северный, СВ - северо-восточный, В - восточный, ЮВ - юго-восточный, Ю - южный, ЮЗ - юго-западный, З - западный, СЗ - северо-западный.
Видимость - горизонтальная дальность видимости в метрах или километрах. При видимости от 1 до 10 км при отсутствии осадков обычно наблюдается дымка, при ухудшении видимости до 1 км и менее - туман. В сухую погоду видимость может ухудшаться дымом, пылью или мглою.
Явления - указаны атмосферные явления, наблюдавшиеся в срок или в последний час перед сроком; фигурными скобками обозначены явления, наблюдавшиеся между сроками (за 1-3 часа до срока); квадратными скобками обозначены град или гололедные отложения с указанием их диаметра в мм.
Облачность - указаны через наклонную черту общая и нижняя облачность в баллах и высота нижней границы облаков в метрах; квадратными скобками обозначены формы облаков: Ci - перистые, Cs - перисто-слоистые, Cc - перисто-кучевые, Ac - высококучевые, As - высокослоистые, Sc - слоисто-кучевые, Ns - слоисто-дождевые, Cu - кучевые, Cb - кучево-дождевые. Подробнее классификацию облаков см. в Атласе облаков (PDF).
T - Температура воздуха - температура, измеренная на высоте 2 м над землей.
Td - Температура точки росы - температура, при понижении до которой содержащийся в воздухе водяной пар достигнет насыщения.
f - Относительная влажность воздуха - влажноcть воздуха, измеренная на высоте 2 м над землей.
Te - Эффективная температура - температура, которую ощущает одетый по сезону человек в тени. Характеристика душности погоды. При расчете учитывается влияние влажности воздуха и скорости ветра на теплоощущения человека.
Tes - Эффективная температура на солнце - температура, которую ощущает человек, с поправкой на солнечный нагрев. Характеристика знойности погоды. Зависит от высоты солнца над горизонтом, облачности и скорости ветра. Ночью, в пасмурную погоду, а также при ветре 12 м/с и более поправка равна нулю.
P - Атмосферное давление - приведенное к уровню моря атмосферное давление.
Po - Атмосферное давление - измеренное на уровне метеостанции атмосферное давление.
Tmin - Минимальная температура - минимум температуры воздуха на высоте 2 м над землей.
Tmax - Максимальная температура - максимум температуры воздуха на высоте 2 м над землей.
R - Количество осадков - Количество выпавших осадков за период времени, мм. При наведении курсора мыши на число - период времени, за который выпало указанное количество осадков.
R24 - Количество осадков - Количество выпавших осадков за 24 часа, мм.
S - Снежный покров - Высота снежного покрова, см. При наведении курсора мыши на число - состояние снежного покрова и степень покрытия местности в баллах.